[[{"header":{"parameterUnit":"m.s-1","parameterCategory":1,"la1":30.2991,"la2":30.254,"lo1":-89.0895,"lo2":-89.0444,"dy":0.0017,"dx":0.0017,"nx":28,"ny":28,"refTime":"2025-03-01T03:00:00:Z","depth":0,"parameterNumber":2,"parameterNumberName":"U-component_of_WINDS"},"data":[0,0,0,0,0,0,0,0,0,0,0,0,0,0,0,0,0,0,0,0,0,0,0,0,0,0,0,0,0,0,0,0,0,0,0,0,0,0,0,0,0,0,0,0,0,0,0,0,0,0,0,0,0,0,0,0,0,0,-2.634,-2.634,0,-2.6378,-2.6379,-2.6379,-2.63,-2.6297,-2.6295,-2.6292,-2.6332,-2.6336,-2.6339,0,0,0,0,0,0,0,0,0,0,0,0,0,-2.6197,-2.6201,-2.634,-2.634,-2.6341,-2.6378,-2.6379,-2.6379,-2.63,-2.6297,-2.6294,-2.6291,-2.6331,-2.6335,-2.6339,0,0,0,0,0,0,0,0,0,0,0,0,0,-2.625,-2.6202,-2.634,-2.6306,-2.6303,-2.6378,-2.6379,-2.638,-2.6301,-2.6297,-2.6293,-2.629,-2.633,-2.6335,-2.634,-2.645,0,0,-2.6356,-2.6358,0,0,0,0,0,0,0,0,-2.6247,-2.6255,-2.631,-2.6308,-2.6306,-2.633,-2.6343,-2.6403,-2.6302,-2.6302,-2.6292,-2.6288,-2.6335,-2.6339,-2.6355,-2.6452,-2.6453,-2.6356,-2.636,-2.6362,-2.6363,0,0,0,0,0,0,0,-2.6244,-2.6253,-2.6355,-2.6311,-2.6308,-2.6289,-2.6292,-2.6354,-2.634,-2.6302,-2.6296,-2.6302,-2.6333,-2.635,-2.6356,-2.6454,-2.6356,-2.6361,-2.6364,-2.6366,-2.6643,-2.6647,0,0,0,0,0,0,-2.6244,-2.6251,-2.6354,-2.6356,-2.6266,-2.6294,-2.6298,-2.6326,-2.6339,-2.6337,-2.6305,-2.6298,-2.6343,-2.635,-2.6357,-2.6487,-2.6362,-2.6367,-2.637,-2.6638,-2.6644,-2.6648,0,0,0,0,0,0,-2.6242,-2.6254,-2.6352,-2.6302,-2.6313,-2.6301,-2.6334,-2.6329,-2.6347,-2.6341,-2.6338,-2.6326,-2.6341,-2.6349,-2.6427,-2.6487,-2.6369,-2.6374,-2.6633,-2.664,-2.6646,-2.6748,0,0,0,0,0,0,-2.6238,-2.6254,-2.6296,-2.6304,-2.6316,-2.6423,-2.6337,-2.6333,-2.6356,-2.6347,-2.636,-2.6358,-2.6338,-2.642,-2.6433,-2.6492,-2.6378,-2.6628,-2.6636,-2.6644,-2.6739,-2.6757,-2.6772,0,0,0,0,0,-2.6233,-2.6323,-2.6298,-2.6311,-2.6368,-2.6427,-2.6434,-2.6409,-2.6361,-2.6403,-2.6399,-2.6358,-2.6478,-2.6429,-2.6442,-2.6504,-2.6624,-2.6634,-2.6643,-2.6732,-2.6753,-2.6772,0,0,0,0,0,0,-2.6323,-2.6323,-2.6296,-2.6391,-2.6409,-2.6413,-2.6465,-2.6432,-2.6464,-2.6455,-2.6422,-2.6426,-2.651,-2.6514,-2.6459,-2.6611,-2.6543,-2.6556,-2.6606,-2.6626,-2.6642,-2.6641,-2.6382,0,0,0,0,0,-2.6353,-2.6401,-2.6399,-2.6483,-2.6493,-2.6478,-2.6502,-2.6481,-2.6499,-2.6506,-2.6508,-2.6527,-2.6569,-2.6597,-2.6635,-2.6738,-2.674,-2.6788,-2.6804,-2.6818,-2.683,-2.6885,-2.6906,-2.6679,-2.6679,-2.6679,0,0,-2.6418,-2.6424,-2.6456,-2.6501,-2.6513,-2.6563,-2.6485,-2.6541,-2.6578,-2.6515,-2.6589,-2.6591,-2.661,-2.6701,-2.6741,-2.6707,-2.6892,-2.683,-2.6841,-2.6845,-2.6897,-2.6918,-2.6938,-2.6686,-2.6685,-2.6684,0,0,-2.6561,-2.657,-2.6641,-2.6654,-2.6673,-2.6662,-2.6679,-2.6688,-2.6687,-2.676,-2.6714,-2.6757,-2.6829,-2.6845,-2.6862,-2.701,-2.6973,-2.7023,-2.711,-2.7164,-2.7182,-2.7198,-2.7252,-2.7272,-2.7034,-2.7035,-2.7035,0,-2.6639,-2.6713,-2.6682,-2.6742,-2.6763,-2.6707,-2.678,-2.6794,-2.6824,-2.684,-2.6801,-2.6891,-2.6899,-2.6994,-2.703,-2.7045,-2.7064,-2.7023,-2.7182,-2.7197,-2.7212,-2.7263,-2.7283,-2.7041,-2.704,-2.7039,-2.7039,0,-2.6808,-2.686,-2.6915,-2.6946,-2.6973,-2.7039,-2.7018,-2.7049,-2.7025,-2.7018,-2.7094,-2.7102,-2.7141,-2.7161,-2.7138,-2.7252,-2.7231,-2.7187,-2.7119,-2.724,-2.7288,-2.7307,-2.7049,-2.7047,-2.7045,-2.7044,0,0,-2.7011,-2.7023,-2.7045,-2.7058,-2.7073,-2.7113,-2.7175,-2.7213,-2.7241,-2.7263,-2.7315,-2.7377,-2.7337,-2.7357,-2.7335,-2.7382,-2.75,-2.7333,-2.7333,-2.7365,-2.7627,-2.7662,-2.7685,-2.7475,-2.7478,-2.7481,-2.7626,0,-2.7155,-2.7263,-2.7237,-2.7345,-2.7392,-2.7339,-2.7393,-2.7409,-2.7404,-2.7443,-2.7436,-2.7482,-2.7425,-2.7436,-2.7481,-2.7477,-2.7553,-2.7465,-2.7524,-2.7527,-2.7524,-2.7709,-2.7746,-2.7883,-2.7645,-2.7648,-2.765,0,-2.7337,-2.7366,-2.7479,-2.7486,-2.7505,-2.7555,-2.7588,-2.7625,-2.7642,-2.7634,-2.7656,-2.7624,-2.7686,-2.7615,-2.77,-2.7641,-2.7663,-2.7665,-2.7669,-2.7676,-2.7598,-2.7723,-2.7925,-2.7947,-2.7679,-2.7676,-2.7674,0,-2.7477,-2.7543,-2.7619,-2.7632,-2.7642,-2.7679,-2.7685,-2.7697,-2.7721,-2.7749,-2.7765,-2.7799,-2.7819,-2.7847,-2.7825,-2.7775,-2.7914,-2.7841,-2.791,-2.7911,-2.7944,-2.7943,-2.8156,-2.7955,-2.7955,-2.7954,-2.7954,0,-2.7641,-2.7712,-2.7682,-2.7729,-2.7807,-2.7776,-2.7854,-2.7854,-2.7865,-2.7911,-2.7865,-2.791,-2.7877,-2.7919,-2.7902,-2.7975,-2.7984,-2.798,-2.7975,-2.7986,-2.7987,-2.8001,-2.7992,-2.796,-2.7959,-2.7958,-2.7957,0,-2.7811,-2.7794,-2.7873,-2.7876,-2.7878,-2.7936,-2.7938,-2.7982,-2.7972,-2.8031,-2.8043,-2.8028,-2.8074,-2.8055,-2.8103,-2.8092,-2.8187,-2.8168,-2.8182,-2.8178,-2.8249,-2.8243,-2.848,-2.851,-2.8289,-2.8291,-2.8293,0,-2.7918,-2.7972,-2.798,-2.8008,-2.8017,-2.8062,-2.8086,-2.8056,-2.8084,-2.8106,-2.8147,-2.8189,-2.8221,-2.8297,-2.8291,-2.8327,-2.831,-2.8391,-2.8316,-2.8325,-2.8314,-2.8312,-2.8317,-2.8407,-2.841,-2.8412,-2.8413,0,-2.8111,-2.8099,-2.8136,-2.8171,-2.8201,-2.8227,-2.8248,-2.8273,-2.8244,-2.8277,-2.8324,-2.8349,-2.8398,-2.8441,-2.8473,-2.8478,-2.8442,-2.8436,-2.8455,-2.8467,-2.8474,-2.8473,-2.8225,-2.8432,-2.843,-2.8429,-2.8428,-2.8427,-2.8254,-2.8299,-2.8312,-2.8355,-2.8368,-2.8389,-2.843,-2.8425,-2.8464,-2.8502,-2.8481,-2.8536,-2.8549,-2.8589,-2.8599,-2.8641,-2.861,-2.8636,-2.8643,-2.865,-2.8661,-2.8465,-2.8647,-2.8646,-2.8645,-2.8645,-2.8645,0,-2.8446,-2.8451,-2.8491,-2.8522,-2.8556,-2.8517,-2.8538,-2.8569,-2.8618,-2.8633,-2.8666,-2.8719,-2.876,-2.8756,-2.8793,-2.8828,-2.8812,-2.8839,-2.8837,-2.8839,-2.8686,-2.8667,-2.8851,-2.8851,-2.8851,-2.8851,-2.8851,-2.8851,-2.855,-2.8625,-2.8615,-2.8695,-2.87,-2.8753,-2.8769,-2.8788,-2.88,-2.8862,-2.8895,-2.8892,-2.89,-2.8937,-2.8973,-2.897,-2.8987,-2.9021,-2.9013,-2.887,-2.885,-2.883,-2.8813,-2.9024,-2.9024,-2.9162,-2.9164,-2.9165]},{"header":{"parameterUnit":"m.s-1","parameterCategory":1,"la1":30.2991,"la2":30.254,"lo1":-89.0895,"lo2":-89.0444,"dy":0.0017,"dx":0.0017,"nx":28,"ny":28,"refTime":"2025-03-01T03:00:00:Z","depth":0,"parameterNumber":3,"parameterNumberName":"V-component_of_WINDS"},"data":[0,0,0,0,0,0,0,0,0,0,0,0,0,0,0,0,0,0,0,0,0,0,0,0,0,0,0,0,0,0,0,0,0,0,0,0,0,0,0,0,0,0,0,0,0,0,0,0,0,0,0,0,0,0,0,0,0,0,-5.6854,-5.6856,0,-5.6985,-5.6987,-5.6988,-5.6931,-5.6927,-5.6924,-5.6921,-5.7049,-5.7055,-5.7062,0,0,0,0,0,0,0,0,0,0,0,0,0,-5.6549,-5.6555,-5.6854,-5.6856,-5.6858,-5.6985,-5.6987,-5.6988,-5.6931,-5.6927,-5.6923,-5.692,-5.7047,-5.7055,-5.7062,0,0,0,0,0,0,0,0,0,0,0,0,0,-5.668,-5.6557,-5.6854,-5.6845,-5.6845,-5.6984,-5.6987,-5.6989,-5.6932,-5.6927,-5.6922,-5.6918,-5.7045,-5.7054,-5.7063,-5.7218,0,0,-5.7093,-5.7097,0,0,0,0,0,0,0,0,-5.6673,-5.6692,-5.6844,-5.6845,-5.6846,-5.6937,-5.6926,-5.7065,-5.6933,-5.6899,-5.6921,-5.6916,-5.7015,-5.7027,-5.7062,-5.7224,-5.7229,-5.7093,-5.7099,-5.7103,-5.7106,0,0,0,0,0,0,0,-5.6664,-5.6686,-5.6906,-5.6847,-5.6848,-5.6832,-5.6845,-5.6952,-5.6982,-5.6901,-5.6898,-5.6914,-5.7015,-5.7053,-5.7064,-5.7231,-5.7093,-5.7102,-5.7107,-5.7111,-5.7525,-5.753,0,0,0,0,0,0,-5.6656,-5.6679,-5.6902,-5.691,-5.6746,-5.6841,-5.6856,-5.6912,-5.6981,-5.6987,-5.6918,-5.6911,-5.7039,-5.7053,-5.7069,-5.7254,-5.7103,-5.7112,-5.7118,-5.752,-5.7527,-5.7532,0,0,0,0,0,0,-5.6649,-5.6676,-5.6896,-5.6793,-5.682,-5.6851,-5.6915,-5.6918,-5.6955,-5.6993,-5.6998,-5.6952,-5.7035,-5.7055,-5.7181,-5.7258,-5.7116,-5.7125,-5.7514,-5.7522,-5.7529,-5.7626,0,0,0,0,0,0,-5.6641,-5.6674,-5.6735,-5.6795,-5.6826,-5.701,-5.692,-5.6924,-5.6973,-5.6965,-5.7026,-5.7032,-5.7033,-5.7167,-5.7191,-5.7268,-5.7133,-5.7507,-5.7518,-5.7527,-5.7616,-5.7637,-5.7654,0,0,0,0,0,-5.663,-5.6756,-5.6739,-5.6766,-5.6903,-5.7014,-5.7031,-5.7032,-5.6979,-5.704,-5.7064,-5.703,-5.7245,-5.7181,-5.7207,-5.7288,-5.7503,-5.7515,-5.7526,-5.7608,-5.7633,-5.7653,0,0,0,0,0,0,-5.6703,-5.6764,-5.6745,-5.6895,-5.695,-5.7004,-5.7081,-5.7058,-5.7128,-5.7118,-5.7114,-5.7128,-5.7259,-5.7285,-5.7213,-5.7441,-5.7365,-5.7383,-5.7419,-5.7442,-5.7461,-5.7452,-5.7141,0,0,0,0,0,-5.6736,-5.6824,-5.6871,-5.6999,-5.7027,-5.7049,-5.7098,-5.7094,-5.715,-5.7172,-5.7206,-5.726,-5.7339,-5.7392,-5.7467,-5.7619,-5.7631,-5.7688,-5.7706,-5.7721,-5.7737,-5.7818,-5.7844,-5.7571,-5.7571,-5.7571,0,0,-5.6806,-5.685,-5.6906,-5.7014,-5.7057,-5.7145,-5.7069,-5.7166,-5.7231,-5.7186,-5.7309,-5.7335,-5.7394,-5.7534,-5.7597,-5.7561,-5.7815,-5.7737,-5.7748,-5.7756,-5.7833,-5.7859,-5.7882,-5.7579,-5.7578,-5.7576,0,0,-5.6979,-5.7022,-5.7133,-5.7177,-5.7242,-5.7256,-5.7282,-5.734,-5.7357,-5.7479,-5.7447,-5.7523,-5.766,-5.7704,-5.7745,-5.7933,-5.7904,-5.7957,-5.8055,-5.8134,-5.8156,-5.8175,-5.8242,-5.8266,-5.7972,-5.7972,-5.7973,0,-5.7058,-5.7192,-5.7192,-5.7292,-5.734,-5.7305,-5.7415,-5.7457,-5.7543,-5.7576,-5.7534,-5.7706,-5.7744,-5.7893,-5.7939,-5.7973,-5.8001,-5.7951,-5.8153,-5.8172,-5.819,-5.8253,-5.8279,-5.7978,-5.7978,-5.7977,-5.7977,0,-5.7285,-5.7378,-5.7459,-5.7546,-5.7602,-5.7707,-5.7721,-5.7778,-5.7768,-5.7785,-5.7909,-5.7953,-5.8037,-5.8071,-5.8062,-5.8219,-5.8195,-5.8153,-5.8077,-5.8222,-5.8282,-5.8306,-5.7987,-5.7985,-5.7983,-5.7982,0,0,-5.7509,-5.7593,-5.7623,-5.7661,-5.773,-5.7801,-5.7903,-5.7987,-5.8036,-5.8095,-5.818,-5.8297,-5.8258,-5.8304,-5.8299,-5.8369,-5.8515,-5.8318,-5.832,-5.8353,-5.8689,-5.8721,-5.8749,-5.8495,-5.85,-5.8504,-5.8684,0,-5.7687,-5.7869,-5.7871,-5.8037,-5.8123,-5.809,-5.8178,-5.8229,-5.8247,-5.832,-5.8339,-5.8422,-5.8366,-5.8393,-5.846,-5.8483,-5.8582,-5.8469,-5.8573,-5.8576,-5.856,-5.8781,-5.8814,-5.8983,-5.8708,-5.8712,-5.8714,0,-5.7921,-5.799,-5.8166,-5.8222,-5.8257,-5.8338,-5.8414,-5.8485,-5.854,-5.8548,-5.8599,-5.8583,-5.8685,-5.8606,-5.8744,-5.8668,-5.8709,-5.8727,-5.8733,-5.8743,-5.8655,-5.8797,-5.9037,-5.9062,-5.8751,-5.8748,-5.8746,0,-5.8067,-5.8203,-5.8326,-5.836,-5.8428,-5.8485,-5.8516,-5.8567,-5.8617,-5.8682,-5.8714,-5.8789,-5.8831,-5.8889,-5.8893,-5.8835,-5.9032,-5.8953,-5.9041,-5.9041,-5.9085,-5.9082,-5.9335,-5.9111,-5.911,-5.911,-5.9109,0,-5.8266,-5.8375,-5.8393,-5.8469,-5.8588,-5.8588,-5.8706,-5.8731,-5.8777,-5.8855,-5.8829,-5.8902,-5.8903,-5.8977,-5.898,-5.9094,-5.9113,-5.9121,-5.9121,-5.9124,-5.9123,-5.9152,-5.9141,-5.9117,-5.9115,-5.9114,-5.9113,0,-5.8451,-5.8467,-5.8599,-5.8653,-5.8669,-5.8755,-5.88,-5.887,-5.8886,-5.8985,-5.9008,-5.9031,-5.9117,-5.9127,-5.9226,-5.9228,-5.9366,-5.9352,-5.9348,-5.9346,-5.9433,-5.9425,-5.9714,-5.9751,-5.9502,-5.9504,-5.9506,0,-5.8578,-5.8661,-5.8724,-5.8776,-5.881,-5.8893,-5.8944,-5.8946,-5.8999,-5.9068,-5.913,-5.9214,-5.9281,-5.9419,-5.9444,-5.9519,-5.9507,-5.9604,-5.9519,-5.9519,-5.9509,-5.9505,-5.9512,-5.962,-5.9623,-5.9625,-5.9627,0,-5.8801,-5.8805,-5.8881,-5.896,-5.9022,-5.9083,-5.914,-5.9183,-5.9191,-5.9253,-5.9341,-5.9393,-5.9495,-5.9578,-5.9652,-5.968,-5.9655,-5.9653,-5.9678,-5.9682,-5.9677,-5.9681,-5.9393,-5.9647,-5.9645,-5.9644,-5.9643,-5.9642,-5.8961,-5.9033,-5.9089,-5.9174,-5.9217,-5.9272,-5.9341,-5.9365,-5.944,-5.9525,-5.952,-5.9617,-5.9668,-5.9766,-5.98,-5.9874,-5.9842,-5.9877,-5.9886,-5.9895,-5.9904,-5.9664,-5.9887,-5.9887,-5.9886,-5.9886,-5.9885,0,-5.9184,-5.9218,-5.9296,-5.9378,-5.9444,-5.9416,-5.9477,-5.9534,-5.9621,-5.9672,-5.9739,-5.984,-5.9919,-5.995,-6.0027,-6.0081,-6.0071,-6.0101,-6.0097,-6.0104,-5.9928,-5.99,-6.0108,-6.0108,-6.0108,-6.0108,-6.0108,-6.0108,-5.9307,-5.9428,-5.9438,-5.9579,-5.9612,-5.9709,-5.9746,-5.9795,-5.9836,-5.9951,-6.0018,-6.0038,-6.008,-6.016,-6.0231,-6.0237,-6.0267,-6.0303,-6.0304,-6.0139,-6.0117,-6.0095,-6.0069,-6.0309,-6.0309,-6.0474,-6.0476,-6.0477]}]]